This is the latest recevied weather packets stored in our database for station/object KB3KAV. If no packets are shown the sender has not sent any weather packets the latest 10 day(s).
| Time | Temp. | Humidity | Pressure | Rain* | Wind** | Luminosity | Snow |
|---|---|---|---|---|---|---|---|
| 1778114737 | 9.44° C | 93% | 1040.1 hPa | 0 mm | - | 0 W/m² | - |
| 1778114136 | 9.44° C | 93% | 1040.2 hPa | 0 mm | - | 0 W/m² | - |
| 1778113534 | 9.44° C | 93% | 1039.9 hPa | 0 mm | - | 0 W/m² | - |
| 1778112933 | 9.44° C | 92% | 1039.6 hPa | 0 mm | - | 0 W/m² | - |
| 1778112332 | 9.44° C | 92% | 1039.3 hPa | 0 mm | - | 0 W/m² | - |
| 1778111731 | 10° C | 92% | 1039.1 hPa | 0 mm | - | 0 W/m² | - |
| 1778111130 | 10° C | 91% | 1038.8 hPa | 0 mm | - | 0 W/m² | - |
| 1778110530 | 10° C | 90% | 1039.1 hPa | 0 mm | - | 0 W/m² | - |
| 1778109929 | 10° C | 90% | 1038.9 hPa | 0 mm | - | 1 W/m² | - |
| 1778109328 | 10° C | 91% | 1038.7 hPa | 0 mm | - | 2 W/m² | - |
| 1778108728 | 10.56° C | 92% | 1038.5 hPa | 0 mm | - | 10 W/m² | - |
| 1778108127 | 10.56° C | 90% | 1038.5 hPa | 0 mm | - | 9 W/m² | - |
| 1778107525 | 10.56° C | 89% | 1038.1 hPa | 0 mm | - | 10 W/m² | - |
| 1778106923 | 10.56° C | 90% | 1037.8 hPa | 0 mm | - | 20 W/m² | - |
| 1778106322 | 11.11° C | 91% | 1037.9 hPa | 0 mm | - | 10 W/m² | - |
| 1778105721 | 11.11° C | 91% | 1037.5 hPa | 0 mm | - | 9 W/m² | - |
| 1778105120 | 11.67° C | 91% | 1037.3 hPa | 0 mm | - | 6 W/m² | - |
| 1778104519 | 12.22° C | 91% | 1036.8 hPa | 0 mm | - | 23 W/m² | - |
| 1778103918 | 13.33° C | 93% | 1036.4 hPa | 0 mm | - | 72 W/m² | - |
| 1778103313 | 13.89° C | 94% | 1036.1 hPa | 0 mm | - | 46 W/m² | - |
| 1778102711 | 15.56° C | 95% | 1035.6 hPa | 1.78 mm | - | 12 W/m² | - |
| 1778102109 | 15.56° C | 95% | 1035.3 hPa | 0 mm | - | 11 W/m² | - |
| 1778101508 | 15.56° C | 94% | 1035.2 hPa | 3.05 mm | - | 31 W/m² | - |
| 1778100908 | 16.11° C | 94% | 1035.3 hPa | 0 mm | - | 28 W/m² | - |
| 1778100308 | 15.56° C | 94% | 1035.1 hPa | 1.27 mm | - | 84 W/m² | - |
* Rain latest hour (hover to see other rain measurements)
** Current wind speed in m/s (hover to see current wind gust speed)